RH
62 63 62 61 66 70 72 72 78 82 73 55 47 52 44 35 36 40 45 48 52 57 54 52 51 51 62 79 85 85 89 84 74 82 91 80 80 88 86 85 87 87 87 88 93 94 89 91 89 84 84 80 77 76 76 78 80 75 70 70 68 68 68 68 69 67 65 62 60 59 62 63 64 64 63 62 57 52 51 53 56 56 53 50 50 52 56 59 58 58 59 59 61 64 65 65 61
68 70 69 72 70 73 78 74 84 82 59 49 47 45 40 34 36 41 44 48 53 57 57 56 57 59 64 67 62 64 91 96 73 76 81 75 86 91 87 86 84 84 87 88 88 87 86 87 84 80 79 74 69 70 72 72 75 76 72 70 68 68 67 68 68 68 66 64 63 62 62 61 61 61 62 60 55 53 53 55 55 53 48 47 50 53 56 58 58 57 58 58 60 61 62 63 61
62 63 69 75 73 77 75 74 84 65 45 49 44 35 34 37 39 42 44 47 52 55 59 58 61 62 59 62 64 72 93 86 64 70 76 77 87 90 88 86 81 82 87 88 85 84 83 82 80 76 75 72 68 68 71 71 75 81 81 78 75 72 72 73 72 71 67 65 64 62 60 59 60 61 62 60 56 53 53 53 52 50 48 52 55 57 58 56 56 56 57 56 56 58 62 64 64
61 60 67 72 78 87 77 81 85 53 41 47 41 33 32 37 37 39 41 43 45 49 54 56 64 57 53 72 78 80 93 83 65 67 75 77 79 83 86 85 80 79 83 83 84 84 80 80 77 73 71 71 71 71 74 76 79 83 83 82 76 72 72 72 71 69 67 65 64 62 62 61 61 61 62 59 56 53 52 51 51 52 54 57 59 59 58 55 55 56 57 57 56 59 64 63 63
66 66 70 72 80 84 76 79 71 45 37 38 35 31 29 34 34 35 36 38 40 46 50 55 65 57 56 74 76 81 91 87 75 65 72 76 71 78 83 81 77 74 77 77 81 80 76 78 76 73 70 69 71 74 78 79 78 76 75 75 73 71 70 68 67 66 65 65 64 63 64 64 62 62 61 58 56 54 54 54 55 56 58 61 61 61 59 55 54 55 56 57 60 63 64 61 62
64 72 75 79 76 65 69 63 41 34 31 28 31 29 32 35 35 38 38 40 42 44 47 51 60 63 72 73 67 79 83 84 85 70 69 72 70 78 80 76 73 74 77 75 74 73 72 73 73 75 72 70 73 76 77 75 73 72 71 72 72 72 71 70 69 68 67 67 66 66 65 64 62 62 62 60 58 59 59 58 57 57 59 60 59 58 55 52 51 51 52 54 60 65 64 62 64
59 70 79 85 72 57 67 52 28 31 28 25 30 31 35 36 36 38 39 43 45 45 45 49 55 63 77 75 73 80 75 76 79 71 69 71 73 79 80 75 73 75 80 79 74 70 70 70 71 72 70 71 73 74 72 71 72 73 74 74 74 75 74 73 71 70 69 69 68 66 65 63 62 63 62 61 61 60 58 57 56 55 56 55 53 52 49 48 49 50 51 54 59 64 64 63 64
55 62 70 73 63 55 54 37 28 30 26 24 27 30 30 31 35 37 39 43 46 48 47 52 57 68 79 79 84 84 74 69 66 67 69 71 74 78 80 76 72 72 78 82 79 76 74 72 71 69 69 71 71 70 68 70 72 73 76 76 77 77 76 73 72 71 69 69 68 66 65 64 64 64 64 64 63 61 58 56 54 53 51 50 49 48 49 50 52 54 56 59 60 64 64 63 62
56 56 55 53 47 45 39 31 29 25 22 22 22 25 24 29 35 36 41 44 46 49 52 56 59 72 82 81 86 87 77 66 62 64 65 69 72 75 79 77 74 72 74 78 78 77 75 73 71 69 70 70 70 70 71 72 72 73 74 75 75 74 72 70 70 71 68 67 66 66 66 66 65 64 63 61 59 57 55 53 51 50 49 49 51 51 53 55 57 60 61 63 63 67 67 65 63
56 53 42 44 47 44 37 35 30 22 21 21 21 22 23 30 34 37 42 45 49 54 58 62 64 73 80 82 88 89 77 65 67 70 68 70 70 73 77 76 74 69 67 70 71 69 70 71 70 72 74 73 72 71 72 72 72 72 71 71 69 69 69 66 66 66 66 66 65 64 64 63 60 55 53 51 49 48 49 49 50 51 52 53 55 55 57 59 61 63 63 64 65 68 71 70 66
47 42 33 43 56 51 41 35 28 25 25 23 24 24 28 33 37 41 45 49 52 60 64 65 71 76 80 85 91 85 72 69 73 75 75 74 74 75 74 71 67 63 62 66 68 66 68 71 72 75 76 75 74 72 73 73 72 70 68 67 64 65 67 65 64 63 64 64 62 60 59 56 52 49 47 46 46 47 49 52 54 56 57 57 59 60 62 64 64 64 65 65 65 67 72 73 69
33 35 43 46 48 49 43 37 29 27 25 26 27 27 33 35 41 45 46 50 51 57 59 62 71 77 83 88 92 86 77 76 71 72 74 74 80 79 71 67 62 60 62 66 70 70 72 76 76 76 75 74 74 74 74 74 72 69 66 64 62 62 63 63 62 61 62 61 59 57 55 52 50 49 48 48 49 52 55 58 61 61 61 62 63 65 66 67 65 63 64 64 63 64 68 71 69
27 35 54 46 39 45 42 39 33 30 27 25 26 26 31 34 40 44 44 48 48 53 55 60 67 74 83 88 93 91 87 83 71 71 72 72 79 77 69 64 62 62 62 64 72 75 75 77 76 75 74 72 75 76 75 75 73 68 65 62 61 61 60 61 60 60 60 58 56 55 53 52 50 50 50 51 54 57 61 63 64 65 66 68 68 69 68 66 64 61 61 61 61 61 64 67 67
23 27 47 47 40 41 36 38 36 33 30 23 24 23 27 31 36 40 44 48 49 53 54 55 60 70 83 88 94 94 93 87 77 78 77 76 75 69 64 60 61 64 65 66 72 77 76 76 75 73 72 73 77 77 76 75 70 67 64 61 61 62 62 62 61 60 58 56 52 50 50 49 48 49 50 53 56 58 60 61 65 70 71 72 73 71 66 63 61 59 58 59 59 57 58 60 62
21 21 44 50 40 37 32 35 32 32 29 22 22 22 24 29 35 40 44 49 50 52 51 53 56 65 79 87 91 91 90 86 83 82 78 77 69 61 61 62 64 66 70 70 72 74 73 75 73 69 69 73 78 77 76 74 69 65 62 61 61 61 62 62 62 60 56 53 50 49 48 48 49 51 54 55 57 57 58 60 63 67 68 68 69 69 65 60 59 57 58 60 59 57 58 56 57
22 22 41 46 37 37 33 31 30 31 28 22 23 23 26 29 34 39 41 45 50 50 50 54 53 55 71 81 83 82 80 81 86 84 77 75 69 66 66 69 71 73 77 76 73 72 69 68 64 63 66 70 73 73 74 71 66 62 59 60 59 57 57 57 58 58 56 54 51 49 48 48 53 56 58 59 61 62 62 64 64 65 66 65 67 69 64 59 59 59 60 62 62 62 62 57 54
22 23 36 39 34 34 30 30 33 31 27 24 25 24 27 29 31 36 38 43 49 50 49 50 50 53 66 76 76 73 74 80 87 86 83 84 81 80 80 79 79 81 84 78 74 71 66 60 58 61 64 65 65 67 71 69 65 63 59 59 58 54 52 53 55 55 54 55 52 50 48 49 56 61 62 65 68 66 65 67 68 67 65 63 66 68 64 61 64 65 65 64 66 65 61 60 58
24 28 35 35 31 29 26 29 30 27 26 26 25 25 28 29 31 36 41 45 47 48 47 47 50 55 62 70 72 72 77 84 87 86 87 91 89 86 86 85 83 85 83 76 73 70 64 57 57 60 58 57 56 61 67 68 67 66 63 60 59 56 53 55 56 56 55 55 54 52 52 52 57 63 65 67 67 63 65 69 70 67 63 63 66 68 67 66 66 66 66 66 69 69 64 63 63
23 28 35 33 28 25 23 25 25 25 26 25 25 26 28 29 30 34 40 43 44 45 46 49 54 58 62 68 72 75 82 86 86 84 82 83 81 80 84 85 85 84 79 74 71 66 60 54 54 55 53 54 53 58 64 67 69 66 65 61 60 60 58 60 60 60 59 58 58 55 56 57 58 63 66 67 66 68 74 76 74 70 66 65 66 67 67 65 63 61 62 64 67 68 66 64 64
22 25 31 28 23 22 21 23 23 23 23 24 25 25 27 28 29 31 36 41 43 45 50 53 58 63 67 69 72 76 82 84 85 83 79 75 73 73 76 81 82 80 78 74 68 64 59 54 57 58 54 53 55 60 61 64 67 66 66 63 61 62 63 64 64 64 63 64 63 60 61 62 62 65 68 70 72 77 81 79 74 71 68 65 64 63 61 60 58 56 56 58 59 60 60 61 65
19 21 23 21 20 22 23 22 23 23 24 25 25 26 27 27 29 33 41 51 51 49 52 54 58 66 69 70 73 77 80 83 85 83 80 79 77 74 71 75 77 77 78 74 68 67 64 56 56 60 55 50 53 57 59 60 63 66 65 61 59 62 65 67 68 69 69 69 68 66 66 65 67 69 70 69 73 78 78 76 73 73 70 64 62 62 58 56 57 58 57 57 56 57 59 62 69
16 16 17 18 20 23 22 21 23 24 25 25 26 29 29 28 33 38 45 56 57 51 51 51 56 65 66 68 74 78 81 83 84 82 83 83 82 78 77 77 76 78 77 70 67 68 68 59 52 55 54 52 56 60 63 59 59 63 63 59 56 59 64 68 72 73 70 71 71 71 68 65 67 71 70 68 72 75 74 74 76 77 72 64 64 63 60 58 59 62 62 61 59 61 63 66 72
16 16 17 20 20 21 21 22 24 24 25 27 29 31 30 31 36 39 42 51 53 50 51 51 57 64 64 69 76 78 80 81 82 81 82 84 82 81 84 84 82 81 74 69 69 69 70 65 57 54 52 58 64 65 64 58 55 60 62 60 58 60 65 70 74 75 73 70 72 72 67 64 68 71 70 68 70 68 68 73 77 79 73 67 68 67 64 61 62 66 67 67 66 66 67 68 73
14 17 18 20 19 19 21 23 24 23 26 28 29 30 31 32 36 38 42 48 51 51 51 53 59 65 67 73 76 75 77 76 77 76 75 77 78 81 85 86 85 82 75 73 72 69 72 73 70 63 56 61 66 63 60 58 58 59 61 62 61 59 64 70 71 76 79 75 75 73 66 66 71 72 69 66 63 60 61 65 70 75 71 68 71 72 71 67 65 68 71 73 72 71 72 71 73
13 17 18 19 19 20 21 23 24 25 28 28 30 34 34 34 37 41 46 50 52 52 53 56 59 63 67 74 74 75 77 75 75 74 72 73 75 81 83 81 82 82 79 77 72 67 69 72 76 72 63 63 68 67 61 61 64 61 58 62 63 58 59 67 68 76 85 82 81 78 72 74 75 72 69 65 60 58 59 58 62 66 66 67 71 73 75 75 73 72 73 74 72 71 72 73 73
13 15 16 17 20 21 23 25 26 28 30 29 33 40 38 39 44 48 51 52 53 53 55 58 60 61 65 70 71 74 78 76 75 73 72 75 77 81 81 77 76 79 80 76 72 72 74 76 78 74 69 68 68 67 60 60 65 65 61 64 69 68 70 76 78 84 86 79 80 81 80 82 80 75 70 66 62 60 59 60 62 62 63 66 68 71 73 76 78 76 73 70 69 71 73 72 69
12 14 15 18 21 22 24 27 28 30 31 30 36 42 39 39 48 55 54 53 54 55 57 58 59 61 63 66 66 69 74 72 72 72 73 76 77 78 78 75 70 76 83 75 70 76 77 77 76 70 73 77 74 70 64 61 66 69 73 75 71 68 72 81 86 88 81 74 77 81 84 86 84 79 74 70 64 61 61 62 65 66 66 66 68 71 73 75 77 75 73 72 74 77 77 72 68
12 14 16 18 20 22 25 27 29 32 33 33 35 39 39 41 49 54 54 54 55 55 56 56 57 58 60 62 60 64 69 66 65 69 70 71 73 70 70 70 66 73 81 70 65 75 76 75 76 70 68 72 74 74 68 60 60 66 73 75 69 65 70 77 84 84 76 74 79 82 85 86 86 82 78 74 65 62 65 65 67 68 68 69 72 74 76 79 81 79 77 77 81 82 78 73 70
11 14 18 21 22 24 25 26 29 31 35 34 34 43 45 45 49 51 52 53 54 54 55 54 54 55 57 59 59 61 65 62 60 63 65 67 69 66 65 67 67 71 76 69 68 78 81 83 84 79 71 67 66 65 61 56 56 60 65 69 74 81 84 84 89 89 81 80 83 83 84 86 85 80 75 70 64 64 67 66 63 61 66 74 75 72 75 84 88 88 85 84 85 81 74 71 73
12 14 19 22 24 25 23 24 27 29 34 32 35 52 55 48 48 49 51 52 52 53 52 52 53 54 54 56 57 57 59 59 58 60 64 65 68 69 66 67 71 73 75 77 79 81 84 87 90 87 78 71 68 62 58 58 59 61 65 71 78 86 90 91 91 90 85 82 82 83 86 85 79 70 66 64 64 66 66 62 59 61 70 74 66 64 74 87 92 92 89 84 76 68 62 60 62
14 15 18 21 24 25 22 23 26 28 32 29 34 55 57 49 49 47 50 51 51 53 51 51 53 54 53 53 52 51 53 56 55 59 63 63 66 70 68 68 72 74 77 81 83 81 80 83 86 82 73 68 67 63 61 62 62 64 69 75 79 83 90 92 87 83 83 82 79 82 85 81 73 64 61 62 66 69 68 65 60 61 66 63 56 61 72 77 79 79 76 69 61 57 56 54 53
15 17 20 20 23 24 21 22 26 28 31 28 36 55 54 48 49 47 48 50 50 52 51 52 55 55 53 52 50 47 51 55 53 55 60 62 63 65 67 68 70 74 77 78 80 82 78 76 75 70 65 62 60 61 64 65 64 68 75 81 85 89 90 86 80 77 76 77 79 83 84 80 75 70 67 66 70 76 75 68 60 58 60 58 57 61 63 60 60 63 63 62 58 56 57 57 54
16 20 24 21 22 24 23 23 23 26 29 28 36 51 51 46 47 46 47 49 50 52 52 53 57 58 55 53 50 49 54 58 55 54 56 60 61 60 64 69 71 74 75 75 77 80 77 72 66 63 64 62 59 60 63 64 65 69 77 83 87 90 87 80 76 74 74 77 83 85 84 83 81 77 76 76 80 84 78 67 62 63 64 63 63 62 58 54 55 58 63 64 59 56 58 56 52
19 23 24 19 20 24 25 24 23 24 28 30 35 44 47 43 44 46 46 47 49 51 52 54 59 60 57 54 51 50 56 58 57 57 56 58 60 61 65 70 73 75 76 77 76 77 76 69 64 64 67 66 62 62 63 65 66 66 71 78 81 83 82 79 77 78 80 84 89 86 83 85 85 81 83 87 88 82 72 67 69 69 68 66 64 61 56 52 52 57 63 64 58 57 58 54 52
21 24 23 19 20 23 24 24 23 24 27 33 39 44 45 42 42 44 44 45 48 50 51 54 59 61 58 55 53 55 58 58 58 58 57 59 61 63 67 70 73 73 75 77 76 77 73 68 68 68 67 64 64 66 67 67 66 64 67 72 73 75 76 76 79 82 83 85 88 88 88 90 89 87 89 90 84 75 70 73 72 66 69 73 67 62 61 60 61 65 67 65 60 56 55 56 55
20 21 21 20 21 22 22 22 21 23 29 36 40 43 45 43 43 42 42 45 46 48 51 54 58 60 59 55 55 61 61 58 58 57 58 61 62 64 66 67 70 70 72 74 75 75 66 62 69 72 67 63 65 68 65 62 61 62 65 67 66 67 69 72 78 82 84 87 89 89 91 93 92 91 89 82 76 73 74 71 61 57 69 78 73 69 69 71 73 74 72 67 62 58 55 59 63
18 18 19 19 21 22 21 20 20 22 30 37 37 41 44 44 44 40 40 43 43 46 49 53 58 59 60 58 55 61 63 60 59 58 60 62 61 62 64 67 69 70 72 71 72 69 58 54 64 68 66 65 69 66 58 54 56 62 66 68 69 68 72 78 81 84 87 90 89 89 92 93 90 86 81 77 76 75 71 62 52 51 60 67 71 71 70 74 76 71 69 65 63 65 60 61 69
16 18 19 20 20 20 18 19 19 20 28 36 37 41 44 42 42 40 38 40 41 43 46 51 56 57 59 58 55 59 63 61 62 63 63 62 60 62 64 66 68 70 70 69 69 64 54 54 61 64 65 69 71 64 57 57 61 66 67 69 71 70 73 77 75 75 78 78 78 83 88 87 85 83 81 80 79 74 69 64 58 55 59 65 70 69 67 77 76 65 64 59 60 68 64 63 68
14 16 18 21 21 19 19 18 19 19 26 36 39 41 43 41 40 38 37 39 39 40 43 48 52 56 58 57 56 60 62 63 64 65 65 62 61 63 64 65 66 68 67 67 67 62 56 56 60 66 68 67 67 64 64 66 66 67 69 71 71 68 70 71 63 62 66 69 74 77 76 80 86 86 82 79 76 75 73 70 65 62 62 62 59 55 59 70 68 62 63 60 63 71 66 66 71
11 13 16 20 20 20 21 21 19 19 24 34 39 41 43 41 40 39 37 36 38 40 41 45 49 52 54 52 55 60 62 63 66 66 65 64 63 63 65 66 67 68 68 68 67 62 59 58 62 69 66 59 60 64 68 68 67 71 74 74 69 66 69 67 61 61 64 67 75 76 69 74 86 84 77 78 80 80 82 82 75 68 65 58 50 50 58 64 64 67 67 63 70 74 69 69 68
12 12 13 17 18 18 21 21 18 22 28 31 38 46 48 45 44 43 39 35 37 40 42 46 49 50 51 52 54 57 58 61 65 67 65 64 65 64 66 67 69 70 69 70 68 60 57 60 66 66 57 54 59 66 69 67 68 74 76 74 69 67 69 66 62 62 60 59 66 71 66 69 80 81 78 80 80 73 75 84 82 77 80 75 64 62 66 67 70 77 72 66 73 77 71 65 57
12 12 12 13 14 15 19 18 19 33 41 34 36 53 58 51 46 43 40 39 40 40 42 47 51 52 54 57 59 58 57 59 61 63 63 64 65 65 67 70 70 68 67 67 64 56 54 60 64 58 52 54 56 60 66 67 69 75 76 73 69 66 67 66 65 63 62 61 63 68 70 72 78 81 81 79 70 58 62 78 82 80 82 77 68 66 68 69 72 76 75 72 78 77 68 57 50
13 14 13 10 11 15 19 18 23 37 45 34 30 49 62 53 46 43 40 41 42 41 43 47 50 54 56 58 60 59 59 60 60 61 63 64 65 66 69 71 66 61 61 61 56 53 55 55 53 52 51 48 43 47 59 67 72 73 71 70 66 64 66 66 67 68 68 67 64 66 70 74 76 74 72 68 59 54 64 78 78 72 70 64 60 59 60 61 64 69 72 74 75 69 62 55 52
14 15 12 11 11 15 18 18 22 29 35 35 30 43 60 54 44 42 42 43 44 44 45 46 49 53 56 58 59 59 58 59 61 63 65 65 66 66 67 68 61 58 59 54 48 51 52 46 45 50 45 39 39 47 55 62 66 65 64 66 65 63 64 65 68 69 68 66 64 64 62 63 65 62 58 56 53 54 65 72 69 66 68 65 59 56 54 56 59 62 65 68 66 61 61 62 60
12 10 10 11 10 14 18 18 22 26 34 43 38 39 57 67 60 49 45 45 45 46 46 46 49 51 54 58 59 59 57 57 59 61 63 65 66 64 64 63 60 61 57 47 45 48 43 38 43 46 39 37 46 52 52 51 57 63 65 66 65 63 61 61 61 59 56 56 56 55 48 45 48 49 50 52 53 56 61 63 64 68 69 64 61 60 59 58 58 60 60 60 60 59 63 65 65
9 7 9 10 11 14 16 19 23 25 38 47 39 35 50 70 71 56 52 51 43 43 45 44 48 49 51 56 59 60 60 60 59 57 57 61 63 63 62 63 63 62 53 43 45 46 37 37 44 42 37 43 51 52 50 50 55 64 67 66 64 58 49 45 42 39 36 33 33 33 32 33 36 39 44 46 51 57 57 57 60 61 59 57 60 63 61 60 61 60 59 58 58 58 62 63 64
8 9 8 8 19 26 27 37 37 27 38 45 36 31 36 53 65 57 52 49 39 38 43 44 46 49 50 52 57 61 63 64 62 59 57 58 61 62 63 65 65 62 54 46 48 45 35 38 46 43 42 49 52 50 52 57 63 68 65 58 50 40 32 28 24 21 18 16 18 21 24 29 32 35 38 41 52 59 55 55 54 48 47 51 54 56 57 59 60 59 58 57 58 60 62 63 66
7 10 10 10 26 32 28 39 35 24 35 40 31 29 30 40 54 53 44 39 35 36 40 43 45 48 49 49 52 59 63 64 63 63 64 65 68 68 67 68 65 63 60 52 47 42 36 39 46 47 47 50 52 53 58 67 72 66 50 38 30 24 25 25 20 16 15 17 23 27 30 34 35 37 35 36 51 58 51 48 45 39 43 48 47 49 52 55 55 53 54 55 57 59 60 64 72
7 13 17 16 25 25 21 31 32 29 38 35 25 27 33 35 38 40 40 37 35 34 34 39 42 44 47 47 48 55 61 63 63 66 70 71 72 70 68 69 65 65 65 55 45 42 38 40 44 46 48 48 49 55 62 71 70 50 29 22 22 23 26 27 23 19 21 31 41 45 48 49 46 46 45 45 55 62 54 45 38 36 41 42 41 45 49 52 53 50 49 51 53 56 57 62 69
9 15 19 22 28 23 23 35 34 30 34 28 20 23 32 33 28 33 37 34 33 32 32 35 38 42 44 44 45 51 58 61 62 67 71 73 72 68 67 65 62 62 61 51 43 41 39 41 44 43 44 44 45 51 59 66 57 33 18 19 19 21 24 26 26 24 26 38 49 52 54 54 52 54 61 65 68 68 61 50 38 34 36 38 41 45 47 50 52 50 50 51 54 56 58 62 64
10 15 17 24 34 30 28 35 30 25 27 22 18 24 30 26 27 35 33 29 31 31 31 32 35 39 41 42 43 49 58 60 62 67 69 69 67 65 64 62 59 59 55 46 38 38 38 39 42 40 39 39 39 42 51 54 41 21 15 18 17 17 20 21 23 22 24 34 42 46 49 49 45 46 52 58 58 55 52 50 47 41 37 38 43 46 47 51 55 57 60 65 68 66 62 62 66
9 13 16 19 28 28 27 33 36 32 28 25 26 34 39 31 35 44 37 33 36 33 32 33 35 39 39 41 42 47 57 61 62 66 68 67 64 61 61 59 58 59 54 44 35 34 36 36 39 38 35 33 32 33 37 37 26 15 15 17 16 17 17 15 16 17 21 29 35 40 43 37 29 25 27 33 37 36 38 52 65 63 49 43 45 48 51 57 64 69 73 77 79 79 75 70 69
13 12 15 16 17 18 22 29 34 29 26 33 33 30 33 31 37 46 43 41 43 38 37 36 35 39 39 40 41 45 54 59 61 63 64 65 63 61 61 59 58 60 55 44 33 29 32 35 38 39 35 31 28 27 28 25 17 11 14 17 16 16 14 12 13 16 21 27 32 36 35 27 20 19 21 25 30 31 37 55 70 68 56 49 49 53 56 63 71 76 79 81 80 82 84 79 75
14 10 12 15 13 17 30 33 30 28 29 37 34 24 25 31 39 48 46 45 47 41 39 39 38 40 41 41 41 42 48 54 58 60 60 62 62 62 63 60 56 57 52 42 32 28 29 32 34 36 36 32 27 25 27 22 12 8 13 17 16 15 13 13 14 19 25 29 33 34 33 30 26 24 27 32 36 37 42 52 56 56 55 53 52 54 56 61 68 71 74 78 80 81 83 82 81
10 9 10 15 14 18 29 30 27 32 32 33 33 30 31 34 41 49 48 47 49 45 42 41 41 42 42 42 43 42 46 52 59 64 65 65 64 64 64 61 57 57 53 45 39 37 36 35 34 34 32 30 27 26 29 25 11 6 12 15 17 16 15 14 14 19 24 27 28 31 36 40 37 34 36 43 49 48 44 43 46 51 56 56 54 53 50 51 55 59 61 66 73 77 78 80 82
8 10 9 13 17 17 20 24 28 33 34 39 39 35 42 47 44 44 46 46 47 45 44 43 41 42 40 41 44 45 46 51 56 61 63 63 62 61 60 58 56 56 55 51 49 48 46 43 40 39 36 34 31 30 35 31 13 5 12 16 19 21 19 18 17 19 22 23 24 28 34 40 41 44 49 54 57 54 48 46 49 55 58 54 50 48 48 47 48 52 55 59 68 73 74 76 78
9 12 12 12 15 15 16 23 28 27 36 48 39 32 52 62 48 40 42 42 42 43 43 42 41 40 39 39 42 44 46 49 51 53 55 58 58 55 55 57 57 58 58 57 56 53 51 49 46 45 42 38 33 31 38 37 15 5 14 19 21 24 24 22 21 21 22 23 23 25 31 38 42 49 55 56 57 56 54 55 56 56 56 52 50 54 57 56 55 56 57 60 69 76 76 74 74
11 13 13 13 15 16 16 21 27 25 32 44 35 31 52 57 42 39 40 37 38 39 39 41 40 38 38 38 39 43 46 45 45 43 43 47 49 49 55 62 64 65 64 62 60 56 54 52 49 48 46 40 34 32 39 41 21 9 17 21 21 25 27 25 23 21 22 23 23 25 31 36 42 53 60 60 61 60 59 60 60 59 57 55 56 61 64 64 64 64 64 66 72 75 74 71 72
Wind_Speed
15 13 13 9 4 5 2 4 2 3 2 3 3 2 3 5 9 10 10 9 6 6 12 15 18 20 14 12 14 17 19 8 4 4 6 12 17 18 20 21 21 23 25 25 26 27 28 28 27 29 29 29 29 28 28 27 27 27 27 28 28 28 28 27 25 25 23 22 21 19 18 17 17 16 17 17 18 18 17 15 14 14 13 13 11 10 9 9 9 9 10 10 10 9 7 5 5
15 12 12 11 4 2 3 4 3 2 3 4 3 3 2 5 8 11 10 9 7 11 22 26 25 24 21 20 19 18 19 15 17 18 19 21 21 20 22 22 21 25 26 27 28 28 29 28 28 29 28 28 29 29 27 27 28 27 27 28 28 28 27 26 25 24 22 21 20 18 18 17 16 16 16 16 17 17 16 15 14 13 12 12 11 10 9 9 8 9 9 9 8 7 6 4 6
14 10 10 11 7 3 3 3 2 1 4 5 3 3 4 6 9 13 15 16 17 20 24 24 20 18 21 17 14 14 11 18 28 27 26 23 22 22 23 24 23 25 27 28 29 28 29 29 29 29 29 28 28 29 28 27 29 28 27 28 27 26 26 25 24 23 21 20 20 19 18 18 17 17 17 17 17 17 16 14 13 12 12 11 11 10 9 8 8 8 7 7 7 6 5 4 5
15 11 8 8 7 3 2 3 1 2 5 4 4 4 5 8 11 14 20 24 23 24 21 18 12 12 23 18 12 15 12 20 26 26 26 23 23 24 25 26 24 25 27 27 27 28 29 29 28 29 28 28 27 27 27 26 27 27 27 27 26 25 24 23 23 23 22 21 21 20 19 18 18 17 17 17 17 16 15 14 13 12 12 12 11 10 9 7 6 6 5 4 5 5 5 5 5
16 13 10 7 4 1 2 1 1 3 4 3 3 4 6 9 12 12 19 26 24 23 20 17 11 15 25 16 8 11 15 21 21 23 25 23 23 26 26 26 26 27 27 25 26 27 28 28 27 27 27 27 26 25 26 26 26 25 26 27 26 25 24 24 23 23 23 22 22 20 19 19 18 17 16 16 16 16 15 14 13 13 12 11 10 8 7 6 4 4 3 3 4 4 4 5 5
15 14 12 7 2 1 1 1 3 5 3 5 4 6 10 11 15 17 21 26 26 25 22 19 16 18 18 13 14 16 19 22 20 22 26 25 24 26 27 27 28 29 28 26 25 26 27 26 26 25 26 26 25 25 25 25 25 24 25 25 25 24 24 24 23 23 23 22 21 19 19 19 18 17 16 16 16 15 15 14 13 12 11 9 8 6 5 4 3 2 2 3 4 4 4 4 5
10 12 11 7 5 1 1 1 3 5 5 7 7 8 11 13 19 21 20 21 23 24 24 23 23 21 12 12 17 13 16 21 23 24 26 26 24 25 26 27 28 28 28 27 25 26 26 25 25 24 24 24 24 24 24 24 24 24 23 24 23 23 23 23 22 22 21 21 20 19 18 18 17 16 16 16 15 15 14 13 12 11 9 7 6 4 3 3 2 2 2 3 3 3 3 4 4
8 10 10 5 1 1 2 2 3 4 5 8 11 13 14 17 21 17 14 15 14 17 22 22 25 20 9 12 13 10 16 21 25 25 26 26 25 25 25 27 28 27 26 26 27 26 26 25 24 24 24 23 23 23 23 23 23 23 22 22 22 22 21 21 21 21 20 20 19 18 17 16 15 15 15 15 14 14 13 12 11 9 8 6 5 4 3 2 1 1 1 1 2 2 2 3 3
13 10 8 3 2 2 3 2 4 4 5 7 10 15 20 22 23 17 13 15 15 18 20 17 20 19 12 16 17 14 18 22 25 25 25 25 25 25 25 26 25 26 25 25 26 25 25 24 24 24 23 23 22 22 22 22 22 22 21 21 21 21 21 20 21 20 20 19 19 17 16 15 15 14 14 14 14 13 13 12 10 9 7 6 5 4 3 2 1 1 1 0 1 1 2 2 2
15 12 5 2 2 4 4 1 2 4 6 8 10 16 20 22 23 21 16 15 18 20 19 18 19 22 19 17 16 17 21 24 26 24 23 23 24 25 24 24 23 25 25 25 25 24 25 23 23 23 22 22 21 21 21 21 21 20 20 20 20 20 20 20 20 20 20 19 18 17 16 16 15 15 14 14 13 12 12 11 9 8 7 6 5 4 3 2 1 1 2 1 1 1 2 3 3
8 8 3 3 3 4 3 2 4 5 8 9 13 21 24 26 24 21 20 18 23 23 21 21 18 24 22 15 15 19 25 25 24 24 23 22 22 22 22 22 21 23 24 25 25 24 24 22 22 21 21 20 20 20 20 20 20 19 19 20 19 19 20 20 19 19 19 19 18 17 16 16 15 15 14 13 12 12 11 10 8 7 6 5 5 4 3 2 1 2 3 3 3 3 3 4 4
2 1 2 4 3 3 3 4 6 6 10 10 10 20 29 31 23 18 20 18 23 23 18 16 15 21 15 10 16 22 26 24 23 24 22 22 21 20 21 22 22 22 23 24 24 23 23 22 21 20 19 19 19 19 19 19 18 19 19 19 18 18 19 18 18 18 18 17 17 16 15 15 14 14 13 12 12 11 11 9 8 7 6 5 4 4 3 2 2 4 5 5 5 5 4 5 5
3 2 4 3 1 3 4 4 5 4 6 8 9 20 30 27 22 21 22 21 20 16 15 20 22 18 12 12 20 24 25 24 23 22 22 21 20 20 21 22 22 22 23 23 23 22 21 21 21 20 18 18 18 18 17 17 17 18 18 18 17 17 18 17 17 17 16 16 15 14 14 13 13 12 12 12 11 12 11 9 8 6 5 3 3 3 2 2 3 4 5 7 7 6 6 5 5
5 4 4 2 0 1 4 4 4 4 3 7 13 22 26 22 25 27 25 18 15 19 21 26 27 17 14 16 18 24 24 23 24 22 21 20 20 20 20 21 22 22 22 22 22 22 21 20 20 20 19 17 17 17 16 16 16 17 17 17 17 17 17 16 16 15 14 14 13 12 12 11 10 10 10 10 10 10 9 8 7 6 4 3 3 3 2 3 4 5 6 7 7 7 6 6 5
8 5 5 2 1 1 1 3 4 6 5 6 13 21 21 23 28 26 25 17 15 28 26 23 24 16 15 15 17 28 26 24 24 22 22 20 20 19 19 20 20 21 21 21 21 21 22 21 20 19 19 18 17 16 16 16 16 16 16 16 16 16 16 15 14 13 12 11 10 10 9 9 8 9 9 9 8 6 5 5 6 6 5 4 4 3 2 3 4 5 6 7 7 7 6 6 5
10 5 5 3 2 1 1 3 5 6 5 6 19 26 19 21 28 22 24 24 22 28 25 21 18 13 21 20 23 32 28 27 25 22 23 21 20 19 19 19 19 20 19 20 20 20 20 20 20 19 19 17 16 16 16 16 16 16 15 16 15 15 14 14 13 11 10 9 8 7 7 7 7 7 7 7 5 4 4 4 4 3 2 2 3 3 3 4 5 6 7 7 7 6 5 6 6
10 5 3 3 4 3 3 4 4 5 6 10 23 27 16 13 22 23 26 30 28 24 22 21 14 18 28 24 28 33 29 29 26 24 24 22 22 21 20 20 21 21 19 20 19 19 19 19 19 19 18 16 15 15 15 15 15 16 15 15 15 13 13 12 12 11 11 10 8 6 5 5 6 7 7 5 4 3 3 3 3 3 3 3 3 4 4 4 5 6 7 7 6 6 6 6 7
10 5 3 3 4 5 4 6 6 6 8 12 20 26 20 12 18 25 24 26 27 22 20 21 17 21 26 27 30 30 29 29 27 27 25 24 23 23 23 21 22 22 21 21 19 19 18 18 18 18 18 15 14 15 15 15 15 16 16 15 15 14 13 11 11 11 10 10 8 7 6 6 6 6 5 5 4 3 2 2 2 3 5 6 6 6 6 6 7 7 8 7 6 5 6 6 7
9 4 4 4 4 6 8 8 9 10 12 15 20 26 23 18 23 25 17 18 24 19 16 22 24 25 27 31 31 28 30 30 28 28 26 25 24 23 23 22 22 22 21 21 20 19 17 18 16 16 16 15 14 14 15 15 15 16 16 16 15 14 13 11 10 10 10 9 8 8 7 8 7 6 5 5 4 2 0 1 3 5 7 9 9 7 6 6 7 8 8 7 7 6 7 7 7
9 6 4 7 7 6 9 13 13 17 19 16 17 22 24 24 27 22 17 19 21 18 19 23 27 32 34 33 33 32 32 30 29 27 25 24 22 21 21 22 23 23 23 21 20 18 16 16 15 14 14 14 15 14 14 15 15 15 15 15 14 13 12 11 10 9 9 9 9 8 7 8 7 6 6 4 3 2 1 2 4 5 7 9 9 8 6 6 6 7 8 7 8 7 7 7 7
8 9 4 7 11 7 12 18 17 20 23 19 17 18 20 23 23 24 25 17 11 19 29 33 33 36 38 36 34 33 32 31 29 26 25 23 21 20 19 19 21 22 22 20 19 18 16 15 14 15 14 14 13 13 13 13 13 14 14 14 13 12 11 11 9 8 8 9 9 8 7 7 7 7 5 2 2 2 2 3 4 5 7 9 8 7 6 6 6 6 8 8 8 7 7 7 7
5 8 10 14 16 10 17 25 23 23 24 21 16 13 14 19 20 29 32 14 11 24 35 40 39 40 40 39 36 33 32 30 29 27 25 24 22 20 18 18 19 20 20 20 20 18 16 16 15 15 16 15 13 13 13 12 13 14 13 12 13 12 11 10 8 8 8 9 9 9 8 6 6 6 2 2 2 3 3 3 4 5 7 9 9 6 5 6 6 6 7 8 8 8 8 7 6
3 8 18 21 21 14 19 27 27 26 24 17 13 13 18 20 17 27 31 21 24 32 36 40 39 39 39 38 37 34 33 31 29 28 26 25 23 22 20 19 20 19 18 18 19 18 17 16 16 15 15 15 14 14 14 12 12 13 13 12 12 12 11 10 9 9 8 8 9 9 8 5 5 3 1 3 4 4 4 4 4 5 7 9 8 6 5 6 7 7 7 8 8 9 9 9 7
3 9 17 22 22 17 20 27 28 28 24 19 19 18 17 15 11 18 24 25 32 35 37 39 38 38 36 35 36 34 34 31 30 28 25 24 23 22 21 20 20 18 17 17 17 18 18 16 17 16 14 15 15 14 14 13 12 14 14 12 11 11 11 10 9 9 8 8 8 9 7 4 3 1 2 3 4 4 5 5 4 5 7 8 8 6 5 7 8 8 8 8 8 9 10 11 11
5 11 16 17 18 21 27 29 30 29 25 25 23 17 12 14 15 17 24 30 35 36 37 38 38 37 34 34 33 32 33 30 28 27 24 23 22 23 21 20 19 18 18 17 16 18 18 17 18 18 15 15 15 14 12 11 12 13 12 11 11 12 11 9 8 8 8 7 8 9 8 5 3 1 2 2 4 4 5 5 5 6 8 9 9 9 8 8 9 9 9 7 8 10 11 12 13
9 16 19 17 19 26 32 31 31 28 24 26 20 13 15 21 21 15 25 37 37 38 38 38 39 35 33 34 33 31 32 30 28 26 24 25 23 23 23 20 20 19 17 16 16 18 18 17 17 18 17 16 16 15 11 9 10 10 9 9 10 11 10 7 7 8 8 8 9 10 9 7 4 1 1 2 4 5 6 7 7 8 10 11 11 12 12 11 11 11 11 9 11 14 14 14 15
14 22 20 20 25 28 32 28 29 26 23 28 20 10 14 20 17 9 22 38 38 38 37 37 38 35 33 34 32 31 32 30 27 25 25 27 26 25 24 22 22 21 19 18 18 19 19 18 17 18 18 17 16 14 11 9 9 9 9 9 8 9 8 7 9 9 9 8 9 11 10 8 6 3 2 4 6 7 8 9 9 10 11 12 13 14 14 14 14 14 14 13 14 16 15 16 17
22 26 17 17 24 25 31 27 26 24 17 27 25 11 11 14 12 13 25 36 38 39 35 35 36 33 33 33 31 31 32 29 27 28 28 29 28 26 24 24 24 23 21 20 19 18 18 17 16 17 16 15 15 13 11 9 8 8 9 9 8 8 8 9 10 10 10 9 10 12 10 8 7 5 4 6 8 8 9 10 10 11 12 13 13 14 14 15 15 16 16 15 16 16 16 16 16
24 26 15 13 16 15 24 23 26 23 13 28 28 11 7 8 11 21 31 35 36 38 35 34 34 32 32 33 32 31 31 29 27 29 28 27 28 26 23 23 24 24 22 20 17 17 16 16 16 16 16 16 15 13 12 10 9 8 8 9 9 9 8 9 11 13 12 11 12 12 10 9 7 7 7 8 9 9 10 11 12 13 13 13 13 13 12 12 13 15 15 14 14 15 16 16 16
19 18 13 11 9 6 13 18 24 20 19 33 23 5 3 4 14 27 32 34 34 34 33 33 32 32 33 34 35 31 30 28 27 29 27 25 26 25 22 22 23 23 22 20 18 16 16 16 16 16 16 16 16 14 13 11 10 10 9 10 11 10 9 9 12 15 14 14 14 12 11 10 9 9 10 10 10 10 11 12 13 13 13 12 12 11 10 9 9 9 10 10 12 14 16 17 17
12 10 9 8 7 5 8 13 19 14 20 32 15 3 6 5 15 28 30 33 33 30 30 31 30 33 35 36 35 30 29 29 27 28 28 25 25 24 21 21 22 22 21 20 18 16 16 16 16 16 15 15 16 14 13 12 11 11 10 10 10 10 11 12 13 14 15 15 14 12 12 11 11 11 11 11 10 10 11 12 13 13 12 12 11 10 8 7 7 7 8 9 12 14 15 16 16
4 7 6 4 6 7 7 11 18 16 15 20 11 4 7 6 15 27 30 31 30 28 28 28 29 33 35 35 34 30 30 31 28 27 27 26 25 25 23 22 22 22 20 20 19 16 16 16 14 14 13 13 14 13 13 13 12 12 10 9 9 10 13 13 13 14 14 14 13 13 13 13 12 12 11 12 11 11 12 13 13 12 12 11 9 8 7 8 8 8 9 11 12 12 13 13 13
1 4 5 5 8 7 5 8 15 23 16 9 8 6 6 7 16 26 30 31 29 26 25 26 28 32 34 34 33 31 31 33 32 29 28 27 26 25 25 23 22 22 20 19 19 19 17 16 14 13 13 12 11 11 12 12 13 13 12 11 11 13 14 14 13 13 14 14 13 14 14 14 14 13 13 13 12 11 11 11 11 10 10 8 6 6 6 8 10 10 10 11 12 12 12 12 13
2 2 3 6 10 10 8 7 11 21 18 9 7 9 9 10 18 26 29 31 29 25 24 25 27 31 33 34 33 32 33 35 35 32 29 29 27 25 25 24 23 22 21 19 19 19 17 16 15 13 12 11 9 10 11 11 12 12 12 12 12 13 14 14 13 14 13 13 14 14 15 15 14 15 15 13 9 9 9 9 8 8 7 6 5 5 7 9 10 11 11 11 12 12 12 13 12
5 4 4 4 9 11 12 10 11 16 15 11 9 9 10 12 18 24 29 32 29 26 27 27 28 31 32 34 33 31 33 35 35 33 30 29 27 25 24 23 23 23 22 21 19 18 16 16 16 14 13 11 10 10 11 11 10 10 11 11 11 12 12 13 13 14 14 15 15 15 16 16 16 16 14 8 6 8 8 6 6 8 8 6 5 6 8 9 9 11 11 11 11 11 12 12 11
8 8 7 6 8 9 10 12 14 17 12 10 12 11 12 15 16 20 28 32 30 28 27 27 29 31 33 33 32 31 32 33 33 32 30 30 27 24 24 23 23 22 21 21 20 18 16 17 18 16 13 12 10 11 11 11 11 10 11 10 10 10 10 11 12 13 15 16 16 15 15 16 15 11 7 6 7 8 7 6 7 9 8 7 8 9 9 9 9 10 11 11 11 12 11 10 11
8 8 8 9 10 7 9 11 13 16 11 9 13 14 16 18 17 19 28 30 26 26 25 26 28 30 32 31 32 32 31 31 31 30 31 30 26 24 24 24 23 22 21 21 20 18 17 18 18 16 13 12 12 11 11 10 9 9 9 9 8 7 7 9 9 10 12 12 10 9 9 9 8 7 7 8 8 8 8 8 9 9 9 8 8 9 10 9 9 11 11 10 12 13 13 11 10
7 6 6 8 9 8 10 12 13 13 9 7 11 14 15 17 17 19 26 24 21 27 27 27 30 30 31 31 32 33 31 30 29 30 31 29 27 25 25 25 24 24 22 21 20 18 18 18 17 16 13 13 14 12 11 9 7 6 5 6 6 6 6 6 5 4 5 4 4 4 5 5 6 7 8 8 8 9 10 11 12 12 10 8 7 8 10 10 11 13 12 11 12 12 13 12 11
7 5 3 6 6 5 6 9 13 11 6 6 11 13 12 15 16 17 22 22 23 33 34 33 35 32 31 32 33 33 32 31 30 31 32 30 28 27 27 26 25 24 22 21 20 19 19 19 17 16 15 15 15 14 12 9 6 5 4 5 6 6 6 6 6 6 7 6 6 6 6 6 7 8 9 10 10 11 12 13 14 12 10 9 9 10 11 12 12 13 12 13 12 11 12 12 9
5 6 4 5 3 4 4 7 13 8 5 10 12 8 7 10 11 12 22 27 26 32 37 37 40 38 38 38 37 36 34 34 33 34 34 31 30 29 28 28 26 25 24 22 22 21 21 21 19 19 18 16 15 13 11 8 7 6 6 8 8 7 8 7 7 8 9 8 8 9 9 8 9 10 10 9 8 8 8 9 10 10 9 8 9 10 10 11 11 11 11 12 11 10 10 9 5
5 7 7 4 4 8 7 6 11 4 3 11 10 4 3 7 9 9 14 20 20 26 30 31 36 40 40 40 40 39 38 37 38 38 37 34 33 31 30 29 27 27 26 24 24 23 22 23 22 22 20 17 15 13 12 11 11 10 10 11 11 11 11 10 10 10 9 8 9 10 10 10 10 10 8 6 6 7 6 6 6 6 5 5 7 8 8 9 9 8 9 10 9 8 7 7 5
5 7 9 8 8 10 7 8 10 5 2 10 11 6 4 5 8 10 9 10 13 19 22 24 29 33 34 37 39 40 39 39 40 40 39 37 34 32 31 30 29 28 27 26 25 24 23 24 24 22 20 18 15 14 15 15 13 13 14 14 13 12 12 11 10 10 9 7 7 7 6 7 8 7 7 7 8 8 6 5 4 4 4 4 6 7 6 7 7 7 7 7 7 6 5 6 6
6 6 10 11 10 10 11 13 11 5 4 11 11 7 3 4 8 11 8 8 12 15 16 21 28 30 32 37 39 40 41 41 42 41 40 38 35 33 33 32 31 30 28 27 26 26 24 24 24 23 20 18 16 16 17 17 16 15 15 15 14 13 12 12 11 10 9 8 7 6 5 5 6 7 8 9 9 8 5 4 4 4 5 5 6 6 7 7 7 8 7 6 6 6 5 6 6
6 7 8 9 9 11 15 15 11 5 5 8 7 3 4 5 9 9 8 9 11 13 13 18 26 31 33 37 39 42 44 43 43 42 41 40 37 35 35 34 33 31 29 29 28 27 26 24 24 23 21 20 18 18 17 17 17 16 15 15 15 14 13 13 12 12 12 11 11 11 10 10 11 11 11 11 10 7 6 5 5 5 5 6 6 6 7 7 8 8 7 6 5 5 5 6 6
9 9 7 8 8 10 15 15 10 5 6 7 7 2 5 4 5 4 7 9 11 14 16 17 24 31 34 36 40 43 46 46 45 44 43 41 39 37 36 35 34 31 30 30 29 28 26 25 25 24 23 22 20 19 19 17 16 16 16 16 15 15 15 15 15 15 15 16 16 17 16 15 14 13 13 11 8 7 7 6 5 4 4 6 6 6 5 6 6 5 5 5 4 4 4 5 6
10 7 6 5 4 6 11 11 7 6 6 9 11 6 4 3 4 5 6 8 12 14 15 17 24 33 36 37 41 44 45 47 46 44 43 42 40 38 37 35 34 31 30 30 29 28 27 26 26 25 24 23 22 21 20 17 16 16 16 16 16 16 16 16 17 16 16 16 16 15 14 13 11 10 11 11 9 8 8 7 4 4 5 5 5 5 4 4 3 3 3 4 4 4 3 3 5
7 4 5 3 3 4 3 2 4 6 4 8 12 11 6 3 5 6 8 12 17 15 12 14 22 31 36 38 41 43 44 45 46 45 44 42 41 39 37 37 35 32 31 30 29 28 28 28 27 26 25 24 23 22 20 19 18 17 17 17 17 17 16 15 15 14 14 13 12 12 11 10 9 8 9 10 9 10 10 8 5 5 5 5 5 4 3 3 2 3 3 4 4 4 4 4 5
6 1 4 3 4 4 3 5 3 4 4 6 11 13 7 4 5 7 13 18 19 17 16 17 21 29 37 38 40 42 44 44 45 46 44 43 43 41 40 39 36 34 32 31 31 30 30 30 28 27 26 25 24 23 22 21 20 19 17 16 15 15 15 14 13 12 12 11 11 10 10 9 8 8 9 8 9 10 10 7 5 5 5 5 4 3 2 1 1 2 3 3 3 3 4 5 5
6 2 5 3 3 2 1 2 1 3 5 5 10 12 8 6 7 10 17 20 16 16 20 24 27 32 37 38 39 41 44 46 46 46 45 44 44 44 43 41 38 36 35 34 34 32 32 32 30 29 28 26 25 24 24 23 22 19 16 14 14 14 13 12 11 10 10 10 10 10 10 10 10 9 8 8 8 9 9 7 6 5 5 4 3 2 1 1 0 1 2 3 3 3 4 4 3
6 5 5 5 3 2 2 3 2 2 5 6 8 10 6 5 7 11 18 22 25 25 25 30 35 38 40 41 41 41 43 46 46 45 45 45 46 46 45 43 40 38 37 37 36 35 34 33 32 30 29 27 26 25 25 24 23 19 15 14 12 10 10 9 9 10 10 11 11 12 12 12 12 11 10 9 10 10 10 9 7 5 4 3 2 1 1 2 1 2 2 2 3 4 5 4 3
6 5 6 5 5 5 4 3 3 4 5 5 4 5 5 5 6 10 16 21 26 27 25 29 35 38 41 41 40 40 41 43 44 44 46 47 47 47 46 45 43 40 40 40 40 39 37 36 34 32 30 29 27 26 26 25 23 19 16 14 10 8 8 8 9 10 11 11 11 11 12 12 11 12 12 12 11 10 10 10 8 6 5 4 3 3 3 3 3 3 4 5 5 6 6 6 5
5 4 7 4 6 6 3 4 6 5 3 4 3 3 5 6 4 3 5 8 11 19 22 24 26 29 34 36 36 38 40 41 42 43 45 47 48 48 48 47 45 43 42 43 43 42 41 39 37 35 33 30 29 27 26 25 23 20 17 14 11 9 8 9 9 10 10 10 10 10 10 10 10 10 10 11 10 9 8 8 8 8 8 6 5 4 5 4 4 5 7 9 9 8 9 9 8
4 4 5 5 7 7 3 5 2 3 2 4 3 2 4 2 4 6 4 7 10 15 17 20 24 27 30 33 35 38 39 41 43 45 47 48 48 49 50 49 47 46 44 45 45 44 43 42 40 38 35 32 30 29 27 26 25 23 19 15 12 10 9 8 8 8 9 10 9 9 9 9 9 9 9 8 8 7 6 7 9 11 10 8 7 6 7 6 6 7 9 11 11 11 11 12 11
5 6 7 3 2 4 4 2 2 4 1 4 3 3 3 2 3 5 2 7 11 13 14 16 21 25 28 32 37 39 42 43 45 46 47 48 49 50 50 51 50 48 47 47 47 46 45 43 42 41 39 36 33 31 30 29 27 25 20 16 13 11 9 8 8 8 9 9 9 8 9 9 8 8 7 6 6 7 7 8 11 12 11 10 9 9 8 8 8 9 10 12 12 13 14 14 14
6 5 6 5 4 2 1 3 2 1 2 3 4 4 3 4 5 4 5 9 11 12 13 13 15 21 26 31 35 38 40 41 41 43 45 47 49 51 51 52 51 50 49 48 47 47 46 44 43 42 40 37 35 33 32 31 29 26 22 17 13 11 10 9 9 9 9 9 8 7 7 8 7 7 6 6 8 9 9 9 10 12 12 11 10 10 10 10 10 11 11 13 13 13 15 16 17
2 4 4 3 4 6 3 3 4 4 3 3 4 5 3 5 6 7 10 10 10 11 12 12 16 23 29 31 33 37 40 41 42 44 46 48 51 52 52 53 53 52 51 50 50 49 47 46 45 43 41 38 36 35 35 34 31 27 23 18 14 12 10 9 9 10 10 8 7 6 7 7 7 6 5 6 8 9 9 8 9 11 12 12 11 10 11 11 11 11 12 12 13 14 15 16 17
3 4 4 2 0 3 3 2 2 5 4 3 3 3 5 5 5 8 12 12 13 15 15 13 16 25 31 33 37 40 42 44 45 46 48 50 52 52 53 54 54 54 52 52 52 51 49 48 46 46 43 41 38 36 37 36 32 29 25 19 15 13 11 10 10 10 10 8 7 6 6 7 7 6 6 6 7 8 7 8 8 9 9 10 10 10 10 10 10 10 11 12 13 15 17 17 16
7 6 6 5 3 4 4 3 2 2 5 5 5 4 6 6 4 8 11 11 11 15 15 12 17 27 33 35 38 40 42 44 46 48 50 51 52 54 55 55 54 53 53 54 54 52 52 50 49 49 46 43 40 38 38 37 33 29 25 20 16 13 11 11 10 10 11 9 8 7 7 7 7 6 7 8 8 8 8 8 8 8 9 10 10 10 9 9 9 10 11 12 14 16 18 19 19
Wind_Direction
143 147 159 167 204 195 337 345 73 21 74 94 54 59 73 97 105 110 106 96 85 78 103 109 105 107 107 108 116 81 46 34 110 102 126 141 142 133 127 130 133 131 128 125 120 120 121 122 124 124 124 123 123 122 123 122 121 123 125 128 131 132 134 133 134 136 137 137 134 131 128 127 127 128 129 130 131 130 130 127 122 117 114 114 114 114 108 105 102 99 98 93 91 89 89 77 51
141 150 165 165 178 155 17 24 76 13 58 91 90 86 99 101 101 102 98 91 97 100 98 100 99 98 105 107 105 83 44 51 100 110 124 139 138 132 127 128 131 128 126 123 122 123 123 124 125 125 124 123 123 123 123 123 123 124 124 126 129 131 133 132 134 135 135 133 131 130 129 129 129 129 129 130 131 132 132 127 123 121 120 119 119 119 115 114 110 103 100 94 90 84 82 62 41
150 150 160 160 154 91 23 44 66 52 73 92 95 91 104 97 96 101 108 105 106 105 100 99 94 97 103 90 81 89 70 86 109 118 127 139 137 135 130 129 131 126 125 124 125 126 124 126 127 126 124 123 123 123 123 123 123 124 124 124 126 129 132 133 133 132 131 131 130 131 130 131 130 130 130 131 134 135 132 128 127 127 126 125 126 126 123 119 110 102 96 91 85 72 66 52 42
168 162 154 144 139 111 27 72 136 118 90 96 93 102 103 101 103 106 115 112 106 100 100 99 80 95 103 95 89 91 93 106 117 123 129 138 134 132 132 132 132 128 127 125 126 127 126 126 128 126 125 125 123 121 122 122 121 123 124 125 125 126 129 130 130 131 132 133 132 131 130 130 130 129 130 132 134 135 134 133 132 132 131 130 130 128 122 112 102 95 88 83 73 65 62 55 46
175 176 166 146 104 98 106 99 175 111 113 135 106 106 93 96 101 100 108 107 104 98 101 104 85 94 96 97 108 102 115 121 124 124 128 135 132 130 132 135 134 130 128 125 127 128 127 127 128 127 125 124 123 123 122 122 122 123 124 125 126 127 129 130 132 135 136 135 133 131 129 129 129 129 129 132 134 135 137 136 134 133 132 130 128 122 111 99 89 82 68 58 59 62 56 46 40
171 175 172 183 300 338 107 28 97 94 123 125 108 111 100 95 97 94 92 94 98 100 101 101 103 99 81 80 103 117 129 128 132 131 130 135 133 130 132 137 136 134 132 130 130 128 127 127 128 126 125 126 126 125 123 122 123 123 124 125 126 127 130 133 135 138 137 136 133 131 130 130 129 129 130 131 132 134 134 133 132 131 128 126 123 115 103 91 79 66 33 25 46 58 44 32 28
157 166 168 195 275 297 98 185 116 102 118 110 112 113 104 102 103 100 93 92 96 101 103 101 106 99 83 100 100 113 133 130 136 136 133 134 133 131 133 138 138 137 137 136 133 130 129 129 129 128 127 128 128 127 124 122 122 123 125 126 126 128 131 134 135 138 138 137 135 134 133 132 130 129 129 129 129 129 130 130 130 128 128 128 126 119 109 94 68 47 24 20 38 48 29 25 20
158 170 173 173 327 91 117 148 107 101 116 107 118 121 119 115 108 104 99 99 99 103 107 112 111 95 92 116 100 119 135 132 134 134 132 132 133 134 136 139 139 138 138 139 137 135 134 133 133 131 131 130 130 128 124 123 124 125 126 127 128 130 132 134 134 136 137 138 138 136 134 132 131 130 128 128 128 128 131 134 135 137 139 141 141 135 125 111 69 22 27 35 28 25 3 18 11
179 189 190 171 57 74 93 98 81 101 116 108 120 126 123 119 111 106 100 97 100 100 104 123 117 101 106 108 106 131 137 134 132 130 130 131 135 137 139 141 142 141 142 142 141 140 137 137 135 133 134 132 131 128 126 126 126 128 128 129 131 132 134 135 135 136 136 137 137 135 134 133 132 131 130 130 130 132 136 139 142 144 148 146 147 146 139 141 144 272 313 6 9 359 336 356 346
185 200 203 131 68 75 81 46 68 98 109 104 106 113 113 114 111 107 104 100 99 93 99 115 108 109 120 110 113 139 142 137 133 132 134 134 138 140 142 144 146 144 145 145 143 141 139 139 137 137 137 134 132 130 129 130 130 130 130 131 133 134 135 136 136 136 137 137 136 136 136 136 135 135 135 136 136 138 140 143 146 147 151 149 149 153 153 171 209 265 284 290 300 296 307 321 318
184 212 214 82 75 87 106 88 78 87 94 94 97 105 108 110 106 102 103 98 99 101 109 107 97 111 116 108 120 144 144 138 135 136 138 138 140 142 144 146 149 148 147 146 144 144 142 142 141 140 139 136 134 134 134 134 133 131 130 131 132 134 135 137 136 136 138 138 138 138 140 141 141 141 140 141 142 144 146 149 150 151 153 153 155 159 165 187 261 279 282 279 276 270 266 276 281
209 225 93 80 92 116 132 101 93 101 101 102 104 109 113 112 106 108 108 109 114 117 123 114 118 123 107 105 131 147 147 141 138 137 140 141 141 145 148 150 152 152 151 149 147 148 147 146 144 142 141 140 138 137 138 136 134 132 131 132 133 134 136 138 138 140 141 141 142 144 147 148 147 146 146 148 149 151 153 153 155 157 157 156 157 162 179 216 269 286 289 285 281 273 261 258 266
218 115 89 82 158 147 125 110 114 113 107 118 126 121 120 116 117 124 121 127 129 124 128 127 133 127 109 125 140 150 151 148 144 140 144 142 145 149 151 153 154 155 153 151 149 150 150 148 147 146 146 144 140 139 138 136 134 135 135 136 136 137 138 140 143 145 147 147 148 152 154 153 152 152 152 154 156 158 158 159 161 160 160 164 174 183 205 246 278 297 300 294 291 282 276 269 263
200 148 110 97 211 139 117 121 129 101 107 133 136 132 124 123 129 132 130 129 126 131 134 135 136 122 120 133 144 158 156 156 149 144 147 145 150 152 151 152 153 153 152 152 151 152 151 151 151 151 151 147 143 141 139 138 137 139 140 140 140 140 141 143 147 150 152 153 154 157 158 158 159 159 160 161 163 162 160 161 164 168 176 192 210 224 254 290 306 309 306 303 300 294 296 296 274
195 154 101 105 44 32 94 129 136 109 124 145 134 129 119 126 134 132 133 128 128 139 136 140 141 128 145 153 158 164 162 159 151 146 148 147 152 150 149 148 147 150 150 152 152 153 153 153 156 155 155 150 147 145 143 144 142 142 142 143 144 144 145 147 152 155 157 159 161 163 164 167 171 172 171 171 167 159 159 168 177 180 186 203 224 245 287 315 320 314 315 315 310 307 315 329 320
192 167 76 111 142 96 232 157 134 117 142 133 119 117 108 124 134 132 137 132 134 144 141 147 156 147 157 161 158 161 161 158 152 148 149 148 150 148 148 146 146 149 149 152 151 153 154 156 158 156 155 151 149 147 147 149 147 145 145 147 146 145 147 152 157 162 166 171 172 172 176 183 188 189 186 183 172 164 178 185 197 204 211 245 260 279 303 312 312 312 320 324 319 318 323 343 350
190 169 73 128 167 170 204 172 143 134 145 117 114 118 113 124 131 133 139 135 138 149 148 150 158 149 152 157 155 156 157 156 152 150 151 149 151 151 153 155 155 155 153 155 154 154 155 159 160 157 156 154 153 152 152 156 155 151 150 153 152 151 152 156 164 169 176 180 181 184 195 205 206 204 200 195 187 189 199 194 207 243 284 309 322 327 329 322 317 318 323 328 327 329 334 339 347
182 146 116 164 180 181 183 176 165 140 127 117 122 126 126 132 133 134 136 135 138 141 141 141 138 142 151 154 152 153 152 154 154 154 153 151 155 157 159 163 161 159 156 157 158 157 160 163 162 159 159 161 163 161 161 163 164 161 160 162 163 161 159 162 170 175 181 185 188 193 205 217 219 216 209 205 205 206 201 210 269 299 318 334 336 334 338 334 328 324 324 326 325 327 334 334 331
179 120 132 194 204 188 171 166 163 138 127 129 134 134 133 140 142 140 135 131 132 127 130 133 127 133 146 152 152 153 153 156 159 158 156 156 160 161 162 164 162 161 157 159 161 160 166 167 165 166 163 166 170 167 167 170 174 172 169 171 173 170 168 170 175 182 187 189 196 199 204 217 221 216 214 215 211 203 182 332 343 331 332 338 330 329 340 339 331 324 323 323 324 326 329 332 324
187 157 144 203 191 173 166 157 150 140 134 132 139 139 137 147 151 145 132 129 133 135 141 136 129 135 145 153 155 156 158 161 164 163 160 161 165 165 165 165 165 164 158 159 162 163 172 168 165 171 169 170 172 170 172 175 179 178 175 176 179 176 177 181 184 191 197 196 201 203 203 215 217 206 209 213 187 151 88 13 2 346 345 347 334 334 348 349 342 332 332 333 334 334 334 343 341
188 177 168 185 165 152 170 155 136 133 132 131 137 137 142 156 154 140 130 127 142 150 150 146 142 144 149 155 158 159 162 164 166 168 165 164 169 171 171 168 167 165 158 160 163 167 174 169 167 171 173 177 174 175 176 175 178 179 179 182 183 181 183 190 193 196 205 206 205 208 209 216 213 202 199 188 134 102 59 26 14 1 357 359 351 344 347 348 347 341 344 346 340 337 340 351 352
194 168 143 151 158 158 166 150 133 128 123 123 126 128 148 152 140 139 138 138 164 158 153 151 150 152 154 156 158 160 161 164 168 171 169 168 173 176 175 173 172 170 165 165 166 168 171 170 173 174 178 179 175 179 177 173 179 180 181 186 187 185 182 187 193 196 206 210 210 214 217 224 215 202 176 94 63 51 30 16 13 4 355 356 359 352 338 333 336 338 339 341 339 336 338 338 337
173 136 143 155 162 158 154 145 137 130 117 113 117 123 135 129 128 146 146 148 159 157 153 151 151 154 155 155 157 161 162 164 169 173 173 173 177 177 176 178 178 179 175 170 168 169 172 173 175 180 183 177 172 180 179 170 176 182 186 191 188 188 189 186 187 194 205 211 215 220 224 233 222 205 89 50 35 28 12 4 360 349 341 342 347 344 322 310 317 329 331 329 332 329 324 316 308
161 129 151 164 162 151 144 137 131 126 117 116 119 119 124 121 131 146 142 145 152 152 151 149 150 152 153 156 159 164 166 167 172 176 175 175 178 175 178 182 177 179 180 178 176 171 177 180 177 184 190 179 174 183 184 172 175 184 188 192 192 198 204 197 188 193 203 209 218 228 234 234 212 172 61 43 26 18 360 350 340 323 319 321 324 322 303 294 299 308 315 313 316 319 313 307 300
145 136 150 159 150 136 132 127 123 121 121 122 116 107 105 116 123 129 134 141 146 148 149 149 150 152 154 158 162 166 169 170 174 175 173 176 177 172 177 183 178 178 179 185 186 175 181 186 181 188 194 186 180 184 187 179 182 190 189 190 196 205 210 209 202 199 205 216 227 233 238 240 222 121 59 30 6 357 339 325 319 309 307 309 310 311 301 297 295 292 298 295 305 316 313 307 301
152 144 144 144 130 126 126 123 123 124 127 125 112 97 100 110 111 113 134 140 146 147 148 150 151 154 157 161 165 168 170 171 175 176 176 179 178 173 177 184 185 183 181 187 188 181 185 188 184 188 195 193 186 188 193 190 193 198 196 191 200 208 207 215 224 221 218 222 234 237 238 241 246 268 347 352 340 329 316 307 304 300 301 303 303 304 301 297 290 284 284 282 298 312 313 309 306
148 137 130 130 123 125 125 122 126 126 130 128 119 109 106 113 114 113 139 142 146 147 148 153 154 155 158 163 167 169 172 173 174 175 175 179 180 180 182 186 190 188 187 188 188 187 188 188 187 191 197 196 190 191 193 197 204 206 204 198 210 217 211 222 235 238 233 226 231 238 242 242 244 260 294 325 322 311 304 301 299 298 299 300 300 298 297 295 289 287 286 286 298 308 309 309 308
139 126 108 116 121 125 127 126 131 126 128 128 121 106 94 104 120 136 145 145 147 147 149 156 158 159 162 167 170 172 177 176 173 174 176 181 184 187 189 191 192 191 192 192 189 190 192 192 193 198 206 204 199 201 202 208 215 216 214 214 231 234 223 229 237 239 235 228 227 233 239 240 244 263 293 308 306 302 297 297 298 299 300 298 298 297 297 296 292 293 291 292 299 305 308 309 309
135 122 107 118 119 128 133 136 139 128 128 130 117 92 86 100 128 142 147 149 149 148 151 158 160 164 167 170 170 172 176 176 176 179 183 187 191 194 192 190 192 193 196 197 192 192 198 200 199 204 213 215 214 218 220 223 226 229 232 229 233 234 232 233 232 234 229 222 228 232 234 238 248 266 286 294 296 298 292 295 300 301 301 299 298 298 297 295 292 293 292 294 299 303 309 310 308
129 117 121 131 114 137 148 142 137 128 138 138 122 96 148 130 138 147 152 152 151 150 155 161 162 166 169 170 171 173 175 177 181 182 187 192 192 193 192 191 193 195 197 197 195 197 202 204 204 206 209 211 215 221 223 224 228 231 233 229 225 225 235 233 225 230 225 219 229 236 237 243 255 271 282 282 283 290 290 296 302 300 298 297 299 301 299 296 292 292 291 294 299 303 306 306 304
125 116 127 130 117 169 183 154 137 127 148 146 125 111 174 166 146 152 157 155 154 154 160 164 165 168 171 174 176 179 182 186 188 185 191 195 193 194 195 197 196 197 197 195 196 199 203 206 208 210 208 208 214 220 220 220 225 230 229 227 226 225 235 238 229 227 223 223 234 241 246 253 262 273 275 272 273 280 287 295 298 294 290 292 298 301 303 308 307 306 305 304 306 307 307 307 306
108 134 144 138 130 160 194 173 148 135 154 150 113 108 169 171 160 158 158 160 157 158 165 167 168 171 174 178 180 182 187 192 193 190 193 197 198 199 201 202 199 199 199 197 197 200 206 211 214 215 210 213 219 219 216 217 220 225 225 222 228 233 239 246 242 239 236 234 239 245 250 255 260 264 263 263 265 269 281 292 294 292 289 291 293 297 308 316 316 315 315 315 315 314 312 312 310
46 141 158 156 138 149 179 207 167 142 150 163 120 134 169 171 171 165 160 162 160 160 168 170 170 174 176 179 183 184 187 191 195 195 197 198 200 203 204 202 199 199 201 202 202 205 212 217 218 213 208 214 221 217 215 217 218 220 221 218 223 233 242 250 250 249 247 237 233 240 247 249 252 255 254 255 257 263 281 290 291 292 292 291 288 294 310 314 315 314 316 318 317 318 317 317 314
239 111 134 152 148 157 164 210 192 150 151 172 141 146 169 172 172 170 166 165 164 164 170 172 174 176 179 182 185 187 188 191 194 196 199 200 201 203 203 203 201 199 201 206 208 210 218 222 218 210 207 209 211 215 216 218 223 224 225 224 226 232 239 246 249 250 251 244 239 243 249 250 251 251 248 250 258 269 280 283 286 292 292 286 285 298 306 309 310 308 312 316 317 320 323 324 322
187 160 136 152 160 169 171 180 187 164 156 156 145 152 165 165 169 173 173 169 168 171 172 174 176 178 182 185 187 189 192 194 196 198 200 201 200 200 202 203 202 199 200 206 211 215 222 220 214 211 209 205 204 213 215 217 226 229 231 236 237 240 242 247 253 255 258 257 250 250 253 252 249 247 246 251 265 270 269 273 288 298 295 283 284 298 302 305 308 308 311 314 318 325 329 332 329
186 176 154 165 172 181 182 175 175 167 156 152 153 157 161 165 172 176 175 172 172 175 175 174 178 181 184 187 189 190 194 197 198 200 199 198 197 196 198 199 199 200 200 203 210 217 217 210 208 211 211 206 204 208 211 212 218 225 232 240 243 249 253 252 255 255 256 257 252 249 250 250 248 245 246 251 260 266 267 277 297 302 297 287 282 291 301 310 318 316 312 314 319 326 335 343 336
206 183 163 173 174 192 191 178 177 163 151 170 165 157 164 169 176 178 175 174 174 175 176 176 179 183 185 188 190 191 195 197 198 199 197 195 194 195 197 196 195 198 200 203 209 213 209 203 205 209 207 206 206 206 209 208 210 221 229 234 239 244 246 241 247 255 262 268 265 253 248 252 252 242 239 247 263 279 280 288 306 308 299 296 294 299 304 311 323 319 313 318 321 325 337 347 340
231 204 182 183 179 194 193 175 175 163 144 175 169 156 168 173 177 179 173 173 178 178 177 180 183 185 188 189 191 193 194 194 195 194 193 192 192 194 198 198 198 199 201 204 207 208 204 201 203 205 205 205 205 206 210 208 204 209 214 219 217 213 215 211 205 218 237 256 262 242 231 233 233 231 239 256 276 290 294 300 312 313 305 303 305 308 308 312 323 322 322 328 325 323 333 339 333
239 236 209 207 195 174 189 178 174 167 139 169 174 162 174 182 178 178 176 178 183 182 180 182 184 184 186 189 190 191 190 189 190 189 190 191 191 194 198 201 203 204 204 204 206 205 200 198 199 201 205 205 204 206 209 205 194 189 187 190 188 188 192 184 181 187 189 190 197 206 205 207 222 237 254 273 283 292 300 304 307 306 298 296 303 310 316 319 321 320 325 331 326 320 329 336 325
228 237 225 222 201 155 201 189 172 170 136 162 168 159 176 188 184 184 184 184 183 183 184 184 185 185 187 190 190 188 187 187 185 185 188 189 191 195 200 204 207 207 207 205 205 203 198 196 193 194 199 201 202 203 203 194 186 190 194 192 189 191 191 188 194 202 202 198 195 201 205 210 229 247 260 272 284 296 302 301 300 296 291 293 298 303 308 310 311 318 325 325 320 316 325 334 326
229 221 211 195 191 205 220 176 159 134 80 150 140 110 207 197 194 200 191 188 185 182 183 184 187 188 188 188 189 189 190 189 186 185 188 191 194 199 204 208 209 208 208 206 204 200 194 191 190 192 194 195 195 196 197 197 196 201 205 202 199 201 200 200 204 210 218 219 208 210 216 218 225 237 249 258 273 286 286 283 283 281 279 275 278 285 294 302 310 323 326 318 315 323 332 333 340
249 220 200 190 197 210 202 157 146 92 79 172 144 129 242 234 209 209 192 187 189 183 182 184 186 188 185 185 187 189 191 191 190 190 192 195 199 202 206 209 208 208 207 203 201 196 190 188 190 192 190 189 190 192 197 200 201 206 211 211 211 213 209 206 208 212 222 226 218 218 213 206 211 224 241 258 272 278 272 268 269 264 258 256 269 279 289 305 311 317 326 324 321 328 331 328 334
257 226 196 197 197 189 169 161 159 133 178 195 170 153 199 234 228 219 193 180 192 190 187 186 186 185 185 185 187 188 189 191 193 195 196 198 200 203 205 206 205 204 201 198 197 194 191 189 192 193 188 187 189 192 198 200 203 209 215 218 224 227 223 217 215 212 217 226 230 235 230 219 225 240 254 263 268 268 265 272 284 288 287 287 292 292 294 307 309 310 324 329 327 325 316 320 329
248 236 200 194 183 172 166 166 176 167 146 180 189 126 117 195 224 211 186 182 194 198 193 191 189 188 187 188 189 189 190 191 192 195 197 199 201 202 203 203 202 201 197 195 194 192 191 190 192 191 187 188 191 196 204 205 208 217 222 225 228 231 228 225 221 218 225 235 240 246 252 251 250 257 262 263 262 259 258 273 286 295 301 304 306 303 302 306 308 312 319 321 327 330 325 333 337
241 239 207 187 173 178 175 172 181 158 118 168 212 133 108 220 245 169 173 193 200 202 198 194 192 192 190 189 191 191 192 193 194 196 198 200 203 203 202 201 200 200 197 195 193 190 190 190 190 189 188 190 195 202 209 212 215 222 227 230 230 231 232 231 231 234 237 239 242 245 247 248 249 253 253 252 256 255 254 266 278 289 300 305 307 307 303 298 299 309 317 325 338 340 339 340 333
241 229 203 178 133 167 176 171 165 133 136 184 205 191 146 250 255 163 175 207 210 206 200 196 194 194 193 192 192 193 193 193 195 198 200 202 204 204 202 200 199 200 198 196 194 190 190 190 189 189 189 193 199 206 211 214 218 224 229 235 239 240 241 238 237 238 238 237 238 239 241 245 244 243 242 243 246 248 251 258 265 279 291 296 294 296 306 309 316 333 341 348 354 346 346 345 337
234 218 206 220 38 78 133 100 104 131 188 211 204 198 182 230 247 190 186 206 206 199 191 194 195 195 196 195 194 194 193 193 195 198 200 202 204 203 200 198 198 199 198 197 195 192 192 192 192 192 193 197 204 210 214 216 221 227 233 239 245 246 240 234 230 229 229 227 226 230 235 239 238 239 243 242 239 243 250 253 257 274 281 282 283 285 306 331 358 21 23 15 4 339 337 351 357
212 192 170 216 318 24 43 8 53 150 231 239 206 199 191 220 249 211 209 216 208 192 185 186 191 196 197 196 196 195 195 195 195 197 199 199 198 198 197 197 197 197 197 197 196 194 195 195 195 196 199 203 207 213 217 219 223 230 234 237 239 234 225 221 219 218 218 214 214 218 220 227 235 243 244 234 231 244 254 253 254 265 264 265 272 277 292 337 36 41 48 31 5 338 340 354 357
201 192 107 147 269 353 96 250 217 190 240 240 191 184 192 223 232 214 214 221 215 198 190 185 186 192 194 195 197 196 196 196 196 197 198 197 195 195 195 195 196 197 198 198 196 195 197 199 199 200 204 207 210 216 219 221 227 230 231 229 225 219 212 213 218 220 220 218 218 221 222 232 243 245 240 230 232 247 258 259 256 254 250 251 252 248 240 225 276 42 63 50 14 346 345 352 348
194 185 137 146 157 121 199 232 225 211 257 257 184 170 196 241 245 222 209 214 214 203 191 185 187 190 190 192 196 197 197 197 197 197 197 197 195 195 195 194 195 196 198 198 196 196 199 201 201 203 208 210 212 217 219 223 229 229 224 219 215 212 208 214 227 231 229 225 227 231 233 240 245 241 233 229 236 247 257 265 267 268 270 269 264 266 267 267 312 359 16 17 5 346 337 331 319
201 170 143 159 156 154 197 202 196 205 234 255 199 169 197 205 236 225 207 215 212 197 186 185 188 191 189 189 193 196 197 197 198 198 198 198 197 196 196 195 196 197 197 197 197 197 201 203 203 205 209 212 214 217 220 224 227 224 219 213 204 206 209 216 226 225 222 221 224 230 235 240 242 237 232 233 241 250 258 264 273 289 299 295 289 289 288 292 312 328 326 330 336 333 327 321 307
225 144 121 168 174 157 182 192 187 181 198 241 210 199 215 206 269 287 187 201 189 174 176 179 183 187 185 186 191 195 197 197 198 198 199 200 198 197 197 197 198 198 198 198 198 199 203 205 206 207 210 212 215 216 218 223 225 220 216 209 196 199 206 210 216 214 212 216 221 230 238 240 234 228 228 233 240 249 256 263 275 291 299 297 292 290 295 298 305 314 316 318 322 319 313 312 308
219 179 174 206 174 146 162 231 237 105 156 253 239 266 300 283 320 350 88 131 144 158 171 175 177 179 180 185 190 193 196 198 199 200 200 200 199 198 198 198 199 199 199 200 200 202 205 207 208 208 210 212 214 216 217 220 223 217 213 207 194 194 202 205 208 206 206 212 217 227 234 231 222 218 221 226 232 246 261 271 277 284 291 295 294 289 290 292 295 302 306 310 315 312 306 303 303
152 201 208 199 145 120 121 199 323 57 161 276 292 257 275 228 267 319 78 145 164 168 172 174 176 175 178 185 189 193 197 199 200 202 202 201 199 199 199 200 201 202 203 203 203 205 206 208 210 209 209 210 212 215 216 219 221 216 211 206 194 191 196 202 207 207 207 208 212 220 224 220 216 216 218 231 247 260 273 279 279 282 287 291 290 287 285 282 283 286 288 294 301 305 304 299 293
151 182 185 153 161 187 111 153 167 112 208 273 298 274 239 201 222 231 184 181 181 173 170 173 176 178 182 185 188 192 196 198 199 200 200 201 200 200 200 201 203 204 206 207 206 206 207 210 212 212 212 211 211 213 215 218 220 217 212 206 196 192 195 199 207 210 211 209 209 221 226 220 220 223 228 247 264 271 276 279 283 287 288 287 287 287 286 282 279 281 283 289 296 301 304 302 297
158 140 164 171 166 175 181 164 157 162 194 230 280 301 270 226 217 198 192 188 175 168 175 183 185 187 188 184 184 189 193 195 197 199 201 202 202 202 203 203 205 206 208 208 207 207 209 211 213 214 215 214 214 216 218 219 220 217 212 205 200 196 198 202 208 215 218 213 210 223 233 229 225 229 241 255 267 272 273 280 289 290 287 286 290 295 296 292 287 287 289 296 306 310 310 307 302
186 153 180 220 134 148 173 188 150 142 154 184 219 268 268 248 216 190 188 182 176 177 182 188 187 189 192 189 187 189 191 194 197 200 203 204 204 205 206 206 206 207 207 207 207 208 210 212 214 215 215 215 216 218 220 221 222 218 211 206 203 201 202 207 213 222 224 215 210 216 223 226 223 227 243 257 271 277 277 286 296 297 292 290 296 304 306 301 295 295 297 304 310 309 307 306 300
173 164 185 188 148 127 158 228 287 124 148 167 175 219 265 259 199 185 189 184 183 182 178 182 189 191 196 196 192 191 191 194 199 203 207 207 207 207 207 205 205 205 205 205 207 209 210 212 214 214 215 216 217 220 221 222 222 218 211 206 205 203 205 212 218 226 227 216 207 204 205 213 221 231 245 258 273 281 281 288 301 311 310 303 303 307 306 303 302 304 305 305 304 300 300 303 302